TimeCET,TemperatureF,Dew PointF,Humidity,Sea Level PressureIn,VisibilityMPH,Wind Direction,Wind SpeedMPH,Gust SpeedMPH,PrecipitationIn,Events,Conditions,WindDirDegrees,DateUTC
12:00 AM,35.6,33.8,93,30.12,5.6,ESE,4.6,-,N/A,,Overcast,120,2012-11-15 23:00:00
12:30 AM,35.6,33.8,93,30.12,5.6,Variable,3.5,-,N/A,,Overcast,0,2012-11-15 23:30:00
1:00 AM,35.6,33.8,93,30.12,5.0,Variable,3.5,-,N/A,,Overcast,0,2012-11-16 00:00:00
1:30 AM,35.6,33.8,93,30.12,4.3,Variable,2.3,-,N/A,,Overcast,0,2012-11-16 00:30:00
2:00 AM,35.6,33.8,93,30.12,4.3,Variable,3.5,-,N/A,,Overcast,0,2012-11-16 01:00:00
2:30 AM,35.6,33.8,93,30.12,5.0,Variable,3.5,-,N/A,,Overcast,0,2012-11-16 01:30:00
3:00 AM,35.6,33.8,93,30.09,4.3,East,4.6,-,N/A,,Overcast,100,2012-11-16 02:00:00
3:30 AM,35.6,33.8,93,30.09,4.3,ESE,4.6,-,N/A,,Overcast,120,2012-11-16 02:30:00
4:00 AM,35.6,33.8,93,30.09,4.3,Variable,3.5,-,N/A,,Overcast,0,2012-11-16 03:00:00
4:30 AM,35.6,33.8,93,30.09,3.7,East,4.6,-,N/A,,Overcast,100,2012-11-16 03:30:00
5:00 AM,35.6,33.8,93,30.09,3.7,East,3.5,-,N/A,,Overcast,90,2012-11-16 04:00:00
5:30 AM,35.6,33.8,93,30.09,2.8,SE,2.3,-,N/A,,Overcast,130,2012-11-16 04:30:00
6:00 AM,35.6,33.8,93,30.09,-9999.0,ESE,4.6,-,N/A,,Overcast,110,2012-11-16 05:00:00
6:30 AM,35.6,33.8,93,30.09,-9999.0,ESE,3.5,-,N/A,,Overcast,120,2012-11-16 05:30:00
7:00 AM,35.6,33.8,93,30.09,1.6,SE,3.5,-,N/A,,Overcast,140,2012-11-16 06:00:00
7:30 AM,35.6,33.8,93,30.09,0.8,Variable,1.2,-,N/A,,Overcast,0,2012-11-16 06:30:00
8:00 AM,35.6,33.8,93,30.09,0.7,ESE,3.5,-,N/A,Fog,Fog,110,2012-11-16 07:00:00
8:30 AM,35.6,33.8,93,30.09,1.0,SE,4.6,-,N/A,Fog,Fog,130,2012-11-16 07:30:00
9:00 AM,35.6,35.6,100,30.09,0.8,Variable,2.3,-,N/A,Fog,Fog,0,2012-11-16 08:00:00
9:30 AM,35.6,35.6,100,30.09,1.1,SE,5.8,-,N/A,,Overcast,130,2012-11-16 08:30:00
10:00 AM,35.6,35.6,100,30.09,2.8,ESE,4.6,-,N/A,,Overcast,120,2012-11-16 09:00:00
10:30 AM,35.6,35.6,100,30.09,3.1,South,3.5,-,N/A,,Overcast,170,2012-11-16 09:30:00
11:00 AM,37.4,35.6,93,30.09,3.7,East,3.5,-,N/A,,Overcast,100,2012-11-16 10:00:00
11:30 AM,37.4,35.6,93,30.09,4.3,Calm,Calm,-,N/A,,Overcast,0,2012-11-16 10:30:00
12:00 PM,37.4,35.6,93,30.06,4.3,SE,4.6,-,N/A,,Overcast,130,2012-11-16 11:00:00
12:30 PM,39.2,35.6,87,30.06,5.0,SE,4.6,-,N/A,,Overcast,140,2012-11-16 11:30:00
1:00 PM,39.2,35.6,87,30.06,5.6,East,5.8,-,N/A,,Overcast,100,2012-11-16 12:00:00
1:30 PM,39.2,37.4,93,30.04,6.2,ESE,4.6,-,N/A,,Overcast,120,2012-11-16 12:30:00
2:00 PM,39.2,35.6,87,30.04,6.2,Variable,3.5,-,N/A,,Overcast,0,2012-11-16 13:00:00
2:30 PM,41.0,37.4,87,30.04,6.2,East,4.6,-,N/A,,Mostly Cloudy,90,2012-11-16 13:30:00
3:00 PM,41.0,37.4,87,30.01,6.2,ENE,6.9,-,N/A,,Mostly Cloudy,70,2012-11-16 14:00:00
3:30 PM,41.0,37.4,87,30.01,6.2,East,6.9,-,N/A,,Partly Cloudy,90,2012-11-16 14:30:00
4:00 PM,41.0,37.4,87,30.01,6.2,East,5.8,-,N/A,,Partly Cloudy,80,2012-11-16 15:00:00
4:30 PM,39.2,37.4,93,30.01,6.2,East,4.6,-,N/A,,Unknown,80,2012-11-16 15:30:00
5:00 PM,37.4,35.6,93,30.01,6.2,ENE,4.6,-,N/A,,Unknown,60,2012-11-16 16:00:00
5:30 PM,35.6,33.8,93,30.01,4.3,NE,4.6,-,N/A,,Unknown,40,2012-11-16 16:30:00
6:00 PM,35.6,33.8,93,30.01,3.7,NE,5.8,-,N/A,,Unknown,40,2012-11-16 17:00:00
6:30 PM,33.8,33.8,100,30.01,3.7,NE,4.6,-,N/A,,Unknown,40,2012-11-16 17:30:00
7:00 PM,33.8,32.0,93,30.01,-9999.0,NE,3.5,-,N/A,,Mist,50,2012-11-16 18:00:00
7:30 PM,33.8,33.8,100,30.01,3.7,ENE,3.5,-,N/A,,Unknown,70,2012-11-16 18:30:00
8:00 PM,33.8,32.0,93,29.98,3.7,East,4.6,-,N/A,,Unknown,80,2012-11-16 19:00:00
8:30 PM,35.6,33.8,93,29.98,5.0,East,6.9,-,N/A,,Partly Cloudy,100,2012-11-16 19:30:00
9:00 PM,35.6,35.6,100,29.98,0.1,SE,5.8,-,N/A,Fog,Fog,130,2012-11-16 20:00:00
9:30 PM,39.2,39.2,100,29.98,0.1,SE,4.6,-,N/A,Fog,Fog,140,2012-11-16 20:30:00
10:00 PM,39.2,39.2,100,29.98,0.1,SE,8.1,-,N/A,Fog,Fog,130,2012-11-16 21:00:00
10:30 PM,41.0,41.0,100,29.98,0.1,SSE,8.1,-,N/A,Fog,Fog,150,2012-11-16 21:30:00
11:00 PM,41.0,41.0,100,29.95,0.1,SSE,9.2,-,N/A,Fog,Fog,150,2012-11-16 22:00:00
11:30 PM,41.0,41.0,100,29.95,0.1,SSE,9.2,-,N/A,Fog,Fog,150,2012-11-16 22:30:00